EW2719 Weather Reports


time (UTC)temp
C
wind
direction
speed
KPH
gust
KPH
rain 1hr
cm
rain 24hr
cm
rain mn
cm
humidity
%
barometer
mb
20260506140037 13 69 3.2 8.0 0.00 0.00 0.00 47 1010.9
20260506134536 13 27 4.8 16.1 0.00 0.00 0.00 52 1010.9
20260506133041 13 360 6.4 19.3 0.00 0.00 0.00 54 1010.8
20260506131534 14 74 1.6 16.1 0.00 0.00 0.00 53 1011.0
20260506130037 14 23 6.4 17.7 0.00 0.00 0.00 58 1010.9
20260506124532 14 30 14.5 20.9 0.00 0.00 0.00 59 1010.9
20260506123032 13 32 3.2 16.1 0.00 0.00 0.00 58 1011.0
20260506121530 14 11 3.2 17.7 0.00 0.00 0.00 61 1011.0
20260506120030 13 355 8.0 14.5 0.00 0.00 0.00 56 1011.1
20260506114527 13 73 1.6 11.3 0.00 0.00 0.00 56 1011.1
20260506113025 13 34 3.2 12.9 0.00 0.00 0.00 61 1011.2
20260506111524 13 355 3.2 12.9 0.00 0.00 0.00 64 1011.2
20260506110023 12 19 1.6 14.5 0.00 0.00 0.00 62 1011.3
20260506104526 12 43 1.6 12.9 0.00 0.00 0.00 66 1011.2
20260506103024 12 33 6.4 17.7 0.00 0.00 0.00 69 1011.2
20260506101523 12 21 8.0 16.1 0.00 0.00 0.00 72 1011.2
20260506100019 13 68 3.2 12.9 0.00 0.00 0.00 69 1011.2
20260506094516 12 17 1.6 14.5 0.00 0.00 0.00 62 1011.3
20260506093014 12 40 3.2 9.7 0.00 0.00 0.00 73 1011.4
20260506091517 12 46 1.6 12.9 0.00 0.00 0.00 72 1011.4
20260506090019 11 28 3.2 14.5 0.00 0.00 0.00 72 1011.4
20260506084529 11 32 8.0 14.5 0.00 0.00 0.00 74 1011.3
20260506083009 11 40 4.8 17.7 0.00 0.00 0.00 75 1011.3
20260506081509 11 55 0.0 14.5 0.00 0.00 0.00 74 1011.4
20260506073116 10 26 3.2 12.9 0.00 0.00 0.00 77 1011.4
20260506071601 10 19 4.8 12.9 0.00 0.00 0.00 81 1011.4
20260506061546 8 20 6.4 9.7 0.00 0.00 0.00 83 1011.3
20260506044533 5 360 4.8 9.7 0.00 0.00 0.00 87 1011.2
20260506043022 5 5 4.8 8.0 0.00 0.00 0.00 88 1011.2
20260506041516 4 5 4.8 8.0 0.00 0.00 0.00 88 1011.3
20260506040011 4 5 3.2 8.0 0.00 0.00 0.00 88 1011.3
20260506034509 4 348 6.4 8.0 0.00 0.00 0.00 89 1011.5
20260506033007 4 340 4.8 9.7 0.00 0.00 0.00 89 1011.6
20260506031507 3 333 6.4 12.9 0.00 0.00 0.00 89 1011.7
20260506030006 3 320 6.4 9.7 0.00 0.00 0.00 89 1011.7
20260506024503 3 312 4.8 6.4 0.00 0.00 0.00 88 1011.8
20260506023105 3 315 1.6 4.8 0.00 0.00 0.00 88 1011.9
20260506021601 3 338 0.0 4.8 0.00 0.00 0.00 88 1011.8
20260506020058 3 340 3.2 8.0 0.00 0.00 0.00 88 1011.8
20260506014558 3 350 6.4 8.0 0.00 0.00 0.00 88 1011.7
20260506013103 3 338 4.8 8.0 0.00 0.00 0.00 88 1011.6
20260506011621 4 340 8.0 9.7 0.00 0.00 0.00 88 1011.4
20260506004554 4 9 6.4 9.7 0.00 0.00 0.00 87 1011.3
20260506003051 4 15 6.4 12.9 0.00 0.00 0.00 87 1011.4
20260506001549 4 343 11.3 14.5 0.00 0.00 0.00 87 1011.5
20260506000055 4 348 8.0 12.9 0.00 0.00 0.00 87 1011.5
20260505234546 4 355 8.0 12.9 0.00 0.00 0.00 86 1011.6
20260505233043 4 355 8.0 12.9 0.00 0.00 0.00 85 1011.6
20260505231543 4 355 8.0 12.9 0.00 0.00 0.00 85 1011.7
20260505230040 5 5 6.4 12.9 0.00 0.00 0.00 84 1011.8
20260505224538 5 5 8.0 14.5 0.00 0.00 0.00 84 1011.8
20260505223035 5 13 8.0 16.1 0.00 0.00 0.00 83 1011.9
20260505221534 5 5 9.7 14.5 0.00 0.00 0.00 82 1011.9
20260505220048 5 19 11.3 14.5 0.00 0.00 0.00 81 1011.9
20260505214533 5 15 11.3 16.1 0.00 0.00 0.00 81 1011.9
20260505213032 6 20 8.0 12.9 0.00 0.00 0.00 81 1012.0
20260505211537 6 20 4.8 9.7 0.00 0.00 0.00 80 1011.9
20260505210033 7 129 0.0 4.8 0.00 0.00 0.00 76 1012.0
20260505204528 7 112 0.0 0.0 0.00 0.00 0.00 74 1011.8
20260505203027 7 112 0.0 0.0 0.00 0.00 0.00 73 1011.8
20260505201527 8 112 0.0 0.0 0.00 0.00 0.00 73 1011.9
20260505200027 8 112 0.0 0.0 0.00 0.00 0.00 72 1011.8
20260505194526 8 112 0.0 0.0 0.00 0.00 0.00 72 1011.8
20260505193034 8 112 0.0 1.6 0.00 0.00 0.00 74 1011.8
20260505191525 8 112 0.0 0.0 0.00 0.00 0.00 74 1011.7
20260505190028 8 112 0.0 0.0 0.00 0.00 0.00 74 1011.6
20260505184526 9 112 0.0 0.0 0.00 0.00 0.00 74 1011.5
20260505183034 10 112 0.0 4.8 0.00 0.00 0.00 74 1011.3
20260505181522 10 103 0.0 4.8 0.00 0.00 0.00 74 1011.4
20260505180021 10 98 0.0 0.0 0.00 0.00 0.00 73 1011.4
20260505174518 10 98 0.0 1.6 0.00 0.00 0.00 71 1011.5
20260505173015 10 96 0.0 4.8 0.00 0.00 0.00 70 1011.4
20260505171513 10 116 0.0 4.8 0.00 0.00 0.00 69 1011.5
20260505170012 10 117 1.6 6.4 0.00 0.00 0.00 68 1011.3
20260505164512 11 122 1.6 8.0 0.00 0.00 0.00 67 1011.2
20260505163011 11 117 3.2 9.7 0.00 0.00 0.00 67 1011.2
20260505161511 11 127 3.2 11.3 0.00 0.00 0.00 68 1011.2
20260505153009 12 100 1.6 11.3 0.00 0.00 0.00 67 1011.1
20260505151534 11 103 1.6 11.3 0.00 0.00 0.00 68 1010.9